Starlink 11233

operational
NORAD ID: 61061 Int'l Des: 2024-164 Owner: SPXS Country: US Constellation: starlink
LEOCIRCULAR

Über Starlink 11233

Beschreibung wird geladen...

Live-Position

3D-Globus wird geladen...

Nächste Überflüge

Höhenverlauf

Altitude vs Time

uPlot chart will show altitude changes over time

Zweizeiliger Elementsatz

1 61061U 24164M 25352.29819662 .00000033 00000-0 51355-5 0 9991
2 61061 53.1609 352.6275 0001399 93.2702 266.8476 15.69717899 72634
Epoch: 18. Dez. 2025 • Age: 12 hours

Aktueller Status

Höhe 364.1 km
Geschwindigkeit 7.69 km/s
Subsatellitenpunkt -15.48°S, 174.06°E
Startdatum 13. Sept. 2024
Alter 1.2 years
Typ internet

Technische Details

Klassifizierung Payload
Masse 960.00 kg
Trockenmasse 910.00 kg
Gesamtmasse 960.00 kg
Länge 0.30 m
Durchmesser 4.10 m
Spannweite 29.00 m
Form Box + pan
Hersteller SPXS
Bus-Typ Starlink V2MD
Phasenstatus In Orbit
Besitzer/Staat SPXS/US

Große Konstellationen

Loading constellations...